TimeEDT,TemperatureF,Dew PointF,Humidity,Sea Level PressureIn,VisibilityMPH,Wind Direction,Wind SpeedMPH,Gust SpeedMPH,PrecipitationIn,Events,Conditions,WindDirDegrees,DateUTC
12:15 AM,57.2,53.6,88,30.16,9.0,Calm,Calm,-,N/A,,Clear,0,2013-03-11 04:15:00
12:35 AM,55.4,53.6,94,30.15,9.0,Calm,Calm,-,N/A,,Clear,0,2013-03-11 04:35:00
12:55 AM,53.6,51.8,94,30.15,8.0,Calm,Calm,-,N/A,,Clear,0,2013-03-11 04:55:00
1:15 AM,53.6,51.8,94,30.15,9.0,Calm,Calm,-,N/A,,Clear,0,2013-03-11 05:15:00
1:35 AM,53.6,51.8,94,30.14,9.0,Calm,Calm,-,N/A,,Clear,0,2013-03-11 05:35:00
1:55 AM,53.6,51.8,94,30.14,7.0,Calm,Calm,-,N/A,,Clear,0,2013-03-11 05:55:00
2:15 AM,55.4,51.8,88,30.13,9.0,Calm,Calm,-,N/A,,Clear,0,2013-03-11 06:15:00
2:35 AM,53.6,51.8,94,30.13,10.0,Calm,Calm,-,N/A,,Clear,0,2013-03-11 06:35:00
2:55 AM,53.6,50.0,88,30.12,9.0,Calm,Calm,-,N/A,,Clear,0,2013-03-11 06:55:00
3:15 AM,53.6,48.2,82,30.12,9.0,Calm,Calm,-,N/A,,Clear,0,2013-03-11 07:15:00
3:35 AM,53.6,50.0,88,30.11,10.0,Calm,Calm,-,N/A,,Clear,0,2013-03-11 07:35:00
3:55 AM,51.8,48.2,88,30.11,9.0,Calm,Calm,-,N/A,,Clear,0,2013-03-11 07:55:00
4:15 AM,51.8,48.2,88,30.09,9.0,Calm,Calm,-,N/A,,Clear,0,2013-03-11 08:15:00
4:35 AM,51.8,48.2,88,30.09,9.0,Calm,Calm,-,N/A,,Clear,0,2013-03-11 08:35:00
4:55 AM,51.8,48.2,88,30.08,9.0,Calm,Calm,-,N/A,,Clear,0,2013-03-11 08:55:00
5:15 AM,51.8,48.2,88,30.08,10.0,Calm,Calm,-,N/A,,Clear,0,2013-03-11 09:15:00
5:35 AM,50.0,48.2,94,30.07,10.0,Calm,Calm,-,N/A,,Clear,0,2013-03-11 09:35:00
5:55 AM,51.8,48.2,88,30.06,8.0,Calm,Calm,-,N/A,,Clear,0,2013-03-11 09:55:00
6:15 AM,53.6,51.8,94,30.07,9.0,Calm,Calm,-,N/A,,Clear,0,2013-03-11 10:15:00
6:35 AM,55.4,51.8,88,30.06,9.0,Calm,Calm,-,N/A,,Clear,0,2013-03-11 10:35:00
6:55 AM,53.6,50.0,88,30.07,9.0,Calm,Calm,-,N/A,,Clear,0,2013-03-11 10:55:00
7:15 AM,51.8,48.2,88,30.08,8.0,Calm,Calm,-,N/A,,Clear,0,2013-03-11 11:15:00
7:35 AM,51.8,50.0,94,30.08,9.0,Calm,Calm,-,N/A,,Clear,0,2013-03-11 11:35:00
7:55 AM,53.6,51.8,94,30.09,8.0,Calm,Calm,-,N/A,,Scattered Clouds,0,2013-03-11 11:55:00
8:15 AM,53.6,51.8,94,30.08,7.0,Calm,Calm,-,N/A,,Partly Cloudy,0,2013-03-11 12:15:00
8:35 AM,59.0,55.4,88,30.08,7.0,Calm,Calm,-,N/A,,Clear,0,2013-03-11 12:35:00
8:55 AM,62.6,57.2,82,30.08,9.0,Calm,Calm,-,N/A,,Clear,0,2013-03-11 12:55:00
9:15 AM,64.4,57.2,77,30.09,8.0,Calm,Calm,-,N/A,,Clear,0,2013-03-11 13:15:00
9:35 AM,66.2,57.2,73,30.09,8.0,Calm,Calm,-,N/A,,Partly Cloudy,0,2013-03-11 13:35:00
9:55 AM,69.8,57.2,64,30.09,9.0,Calm,Calm,-,N/A,,Partly Cloudy,0,2013-03-11 13:55:00
10:15 AM,69.8,57.2,64,30.09,10.0,SSE,6.9,-,N/A,,Clear,150,2013-03-11 14:15:00
10:35 AM,71.6,55.4,57,30.08,10.0,SE,10.4,17.3,N/A,,Clear,130,2013-03-11 14:35:00
10:55 AM,73.4,55.4,53,30.08,8.0,SSE,11.5,17.3,N/A,,Clear,150,2013-03-11 14:55:00
11:15 AM,73.4,55.4,53,30.08,9.0,SE,10.4,17.3,N/A,,Scattered Clouds,140,2013-03-11 15:15:00
11:35 AM,73.4,55.4,53,30.08,8.0,South,13.8,-,N/A,,Scattered Clouds,170,2013-03-11 15:35:00
11:55 AM,73.4,55.4,53,30.09,10.0,SE,9.2,-,N/A,,Mostly Cloudy,140,2013-03-11 15:55:00
12:15 PM,73.4,55.4,53,30.08,9.0,SSE,6.9,-,N/A,,Mostly Cloudy,160,2013-03-11 16:15:00
12:35 PM,75.2,53.6,47,30.07,8.0,SSE,11.5,17.3,N/A,,Mostly Cloudy,150,2013-03-11 16:35:00
12:55 PM,75.2,53.6,47,30.07,10.0,Calm,Calm,-,N/A,,Mostly Cloudy,0,2013-03-11 16:55:00
1:15 PM,75.2,53.6,47,30.07,8.0,South,4.6,-,N/A,,Mostly Cloudy,190,2013-03-11 17:15:00
1:35 PM,75.2,53.6,47,30.06,9.0,SSW,10.4,-,N/A,,Mostly Cloudy,200,2013-03-11 17:35:00
1:55 PM,75.2,53.6,47,30.05,10.0,South,8.1,-,N/A,,Mostly Cloudy,190,2013-03-11 17:55:00
2:15 PM,77.0,53.6,44,30.04,9.0,SSW,16.1,19.6,N/A,,Scattered Clouds,200,2013-03-11 18:15:00
2:35 PM,77.0,53.6,44,30.02,9.0,South,6.9,-,N/A,,Scattered Clouds,170,2013-03-11 18:35:00
2:55 PM,77.0,53.6,44,30.01,9.0,South,8.1,18.4,N/A,,Mostly Cloudy,170,2013-03-11 18:55:00
3:15 PM,77.0,55.4,47,30.01,10.0,South,10.4,17.3,N/A,,Mostly Cloudy,190,2013-03-11 19:15:00
3:35 PM,75.2,53.6,47,30.00,8.0,South,5.8,-,N/A,,Mostly Cloudy,170,2013-03-11 19:35:00
3:55 PM,77.0,53.6,44,29.98,9.0,SSE,11.5,17.3,N/A,,Mostly Cloudy,160,2013-03-11 19:55:00
4:15 PM,77.0,53.6,44,29.98,9.0,South,11.5,-,N/A,,Mostly Cloudy,180,2013-03-11 20:15:00
4:35 PM,77.0,53.6,44,29.97,10.0,SSE,3.5,-,N/A,,Scattered Clouds,150,2013-03-11 20:35:00
4:55 PM,77.0,53.6,44,29.96,8.0,South,10.4,16.1,N/A,,Mostly Cloudy,170,2013-03-11 20:55:00
5:15 PM,77.0,55.4,47,29.96,10.0,SSE,8.1,-,N/A,,Scattered Clouds,160,2013-03-11 21:15:00
5:35 PM,75.2,55.4,50,29.96,10.0,Calm,Calm,-,N/A,,Scattered Clouds,0,2013-03-11 21:35:00
5:55 PM,75.2,55.4,50,29.96,9.0,Calm,Calm,-,N/A,,Mostly Cloudy,0,2013-03-11 21:55:00
6:15 PM,73.4,55.4,53,29.96,10.0,SE,6.9,-,N/A,,Scattered Clouds,140,2013-03-11 22:15:00
6:35 PM,73.4,55.4,53,29.96,10.0,SE,9.2,-,N/A,,Partly Cloudy,130,2013-03-11 22:35:00
6:55 PM,71.6,55.4,57,29.96,9.0,SE,8.1,-,N/A,,Clear,130,2013-03-11 22:55:00
7:15 PM,71.6,57.2,60,29.97,8.0,SE,8.1,-,N/A,,Scattered Clouds,130,2013-03-11 23:15:00
7:35 PM,71.6,57.2,60,29.96,8.0,SE,3.5,-,N/A,,Mostly Cloudy,130,2013-03-11 23:35:00
7:55 PM,69.8,57.2,64,29.96,10.0,SE,6.9,-,N/A,,Mostly Cloudy,130,2013-03-11 23:55:00
8:15 PM,69.8,57.2,64,29.96,9.0,Calm,Calm,-,N/A,,Partly Cloudy,0,2013-03-12 00:15:00
8:35 PM,69.8,57.2,64,29.95,8.0,SE,6.9,-,N/A,,Clear,130,2013-03-12 00:35:00
8:55 PM,69.8,59.0,68,29.96,9.0,SE,9.2,-,N/A,,Partly Cloudy,130,2013-03-12 00:55:00
9:15 PM,69.8,59.0,68,29.96,9.0,SE,9.2,-,N/A,,Partly Cloudy,130,2013-03-12 01:15:00
9:35 PM,69.8,59.0,68,29.97,8.0,SE,10.4,16.1,N/A,,Clear,140,2013-03-12 01:35:00
9:55 PM,69.8,60.8,73,29.98,9.0,SE,5.8,16.1,N/A,,Clear,140,2013-03-12 01:55:00
10:15 PM,69.8,60.8,73,29.98,9.0,SE,9.2,-,N/A,,Clear,140,2013-03-12 02:15:00
10:35 PM,69.8,60.8,73,29.99,8.0,SE,4.6,-,N/A,,Scattered Clouds,140,2013-03-12 02:35:00
10:55 PM,69.8,60.8,73,29.98,9.0,SE,8.1,-,N/A,,Scattered Clouds,140,2013-03-12 02:55:00
11:15 PM,69.8,60.8,73,29.97,9.0,SE,10.4,-,N/A,,Clear,140,2013-03-12 03:15:00
11:35 PM,69.8,60.8,73,29.98,8.0,SSE,9.2,-,N/A,,Clear,150,2013-03-12 03:35:00
11:55 PM,69.8,60.8,73,29.97,8.0,SSE,8.1,-,N/A,,Clear,150,2013-03-12 03:55:00